Time,TemperatureF,DewpointF,PressureIn,WindDirection,WindDirectionDegrees,WindSpeedMPH,WindSpeedGustMPH,Humidity,HourlyPrecipIn,Conditions,Clouds,dailyrainin,SoftwareType,DateUTC
2013-02-14 00:00:00,20.0,9.0,-100.00,NE,48,7.0,12.0,61,0.00,,,0.00,,2013-02-14 09:00:00,
2013-02-14 00:32:00,20.0,9.0,-100.00,NE,48,7.0,12.0,61,0.00,,,0.00,,2013-02-14 09:32:00,
2013-02-14 00:42:00,20.0,9.0,-100.00,NE,48,7.0,12.0,61,0.00,,,0.00,,2013-02-14 09:42:00,
2013-02-14 00:52:00,20.0,9.0,-100.00,NE,48,7.0,12.0,61,0.00,,,0.00,,2013-02-14 09:52:00,
2013-02-14 01:00:00,20.0,8.0,-100.00,NE,46,7.0,15.0,60,0.00,,,0.00,,2013-02-14 10:00:00,
2013-02-14 01:32:00,20.0,8.0,-100.00,NE,46,7.0,15.0,60,0.00,,,0.00,,2013-02-14 10:32:00,
2013-02-14 01:42:00,20.0,8.0,-100.00,NE,46,7.0,15.0,60,0.00,,,0.00,,2013-02-14 10:42:00,
2013-02-14 01:52:00,20.0,8.0,-100.00,NE,46,7.0,15.0,60,0.00,,,0.00,,2013-02-14 10:52:00,
2013-02-14 02:00:00,20.0,8.0,-100.00,NE,41,9.0,16.0,59,0.00,,,0.00,,2013-02-14 11:00:00,
2013-02-14 02:32:00,20.0,8.0,-100.00,NE,41,9.0,16.0,59,0.00,,,0.00,,2013-02-14 11:32:00,
2013-02-14 02:42:00,20.0,8.0,-100.00,NE,41,9.0,16.0,59,0.00,,,0.00,,2013-02-14 11:42:00,
2013-02-14 02:52:00,20.0,8.0,-100.00,NE,41,9.0,16.0,59,0.00,,,0.00,,2013-02-14 11:52:00,
2013-02-14 03:00:00,20.0,8.0,-100.00,NE,47,7.0,15.0,59,0.00,,,0.00,,2013-02-14 12:00:00,
2013-02-14 03:32:00,20.0,8.0,-100.00,NE,47,7.0,15.0,59,0.00,,,0.00,,2013-02-14 12:32:00,
2013-02-14 03:42:00,20.0,8.0,-100.00,NE,47,7.0,15.0,59,0.00,,,0.00,,2013-02-14 12:42:00,
2013-02-14 03:53:00,20.0,8.0,-100.00,NE,47,7.0,15.0,59,0.00,,,0.00,,2013-02-14 12:53:00,
2013-02-14 04:00:00,21.0,8.0,-100.00,ENE,64,9.0,16.0,57,0.00,,,0.00,,2013-02-14 13:00:00,
2013-02-14 04:32:00,21.0,8.0,-100.00,ENE,64,9.0,16.0,57,0.00,,,0.00,,2013-02-14 13:32:00,
2013-02-14 04:42:00,21.0,8.0,-100.00,ENE,64,9.0,16.0,57,0.00,,,0.00,,2013-02-14 13:42:00,
2013-02-14 04:51:00,21.0,8.0,-100.00,ENE,64,9.0,16.0,57,0.00,,,0.00,,2013-02-14 13:51:00,
2013-02-14 05:00:00,22.0,8.0,-100.00,ENE,63,10.0,20.0,54,0.00,,,0.00,,2013-02-14 14:00:00,
2013-02-14 05:32:00,22.0,8.0,-100.00,ENE,63,10.0,20.0,54,0.00,,,0.00,,2013-02-14 14:32:00,
2013-02-14 05:42:00,22.0,8.0,-100.00,ENE,63,10.0,20.0,54,0.00,,,0.00,,2013-02-14 14:42:00,
2013-02-14 05:52:00,22.0,8.0,-100.00,ENE,63,10.0,20.0,54,0.00,,,0.00,,2013-02-14 14:52:00,
2013-02-14 06:00:00,22.0,7.0,-100.00,ENE,71,10.0,18.0,53,0.00,,,0.00,,2013-02-14 15:00:00,
2013-02-14 06:32:00,22.0,7.0,-100.00,ENE,71,10.0,18.0,53,0.00,,,0.00,,2013-02-14 15:32:00,
2013-02-14 06:42:00,22.0,7.0,-100.00,ENE,71,10.0,18.0,53,0.00,,,0.00,,2013-02-14 15:42:00,
2013-02-14 06:52:00,22.0,7.0,-100.00,ENE,71,10.0,18.0,53,0.00,,,0.00,,2013-02-14 15:52:00,
2013-02-14 07:00:00,23.0,7.0,-100.00,ENE,66,10.0,20.0,51,0.00,,,0.00,,2013-02-14 16:00:00,
2013-02-14 07:32:00,23.0,7.0,-100.00,ENE,66,10.0,20.0,51,0.00,,,0.00,,2013-02-14 16:32:00,
2013-02-14 07:42:00,23.0,7.0,-100.00,ENE,66,10.0,20.0,51,0.00,,,0.00,,2013-02-14 16:42:00,
2013-02-14 07:52:00,23.0,7.0,-100.00,ENE,66,10.0,20.0,51,0.00,,,0.00,,2013-02-14 16:52:00,
2013-02-14 08:00:00,22.0,7.0,-100.00,ENE,61,11.0,21.0,51,0.00,,,0.00,,2013-02-14 17:00:00,
2013-02-14 08:32:00,22.0,7.0,-100.00,ENE,61,11.0,21.0,51,0.00,,,0.00,,2013-02-14 17:32:00,
2013-02-14 08:42:00,22.0,7.0,-100.00,ENE,61,11.0,21.0,51,0.00,,,0.00,,2013-02-14 17:42:00,
2013-02-14 08:52:00,22.0,7.0,-100.00,ENE,61,11.0,21.0,51,0.00,,,0.00,,2013-02-14 17:52:00,
2013-02-14 09:00:00,23.0,7.0,-100.00,ENE,68,10.0,20.0,49,0.00,,,0.00,,2013-02-14 18:00:00,
2013-02-14 09:32:00,23.0,7.0,-100.00,ENE,68,10.0,20.0,49,0.00,,,0.00,,2013-02-14 18:32:00,
2013-02-14 09:42:00,23.0,7.0,-100.00,ENE,68,10.0,20.0,49,0.00,,,0.00,,2013-02-14 18:42:00,
2013-02-14 09:52:00,23.0,7.0,-100.00,ENE,68,10.0,20.0,49,0.00,,,0.00,,2013-02-14 18:52:00,
2013-02-14 10:00:00,24.0,8.0,-100.00,ENE,76,10.0,17.0,49,0.00,,,0.00,,2013-02-14 19:00:00,
2013-02-14 10:32:00,24.0,8.0,-100.00,ENE,76,10.0,17.0,49,0.00,,,0.00,,2013-02-14 19:32:00,
2013-02-14 10:42:00,24.0,8.0,-100.00,ENE,76,10.0,17.0,49,0.00,,,0.00,,2013-02-14 19:42:00,
2013-02-14 10:52:00,24.0,8.0,-100.00,ENE,76,10.0,17.0,49,0.00,,,0.00,,2013-02-14 19:52:00,
2013-02-14 11:00:00,25.0,6.0,-100.00,ENE,64,10.0,19.0,45,0.00,,,-99.99,,2013-02-14 20:00:00,
2013-02-14 11:32:00,25.0,6.0,-100.00,ENE,64,10.0,19.0,45,0.00,,,-99.99,,2013-02-14 20:32:00,
2013-02-14 11:42:00,25.0,6.0,-100.00,ENE,64,10.0,19.0,45,0.00,,,-99.99,,2013-02-14 20:42:00,
2013-02-14 11:52:00,25.0,6.0,-100.00,ENE,64,10.0,19.0,45,0.00,,,-99.99,,2013-02-14 20:52:00,
2013-02-14 12:00:00,27.0,7.0,-100.00,ENE,71,10.0,19.0,42,0.00,,,0.00,,2013-02-14 21:00:00,
2013-02-14 12:32:00,27.0,7.0,-100.00,ENE,71,10.0,19.0,42,0.00,,,0.00,,2013-02-14 21:32:00,
2013-02-14 12:42:00,27.0,7.0,-100.00,ENE,71,10.0,19.0,42,0.00,,,0.00,,2013-02-14 21:42:00,
2013-02-14 12:52:00,27.0,7.0,-100.00,ENE,71,10.0,19.0,42,0.00,,,0.00,,2013-02-14 21:52:00,
2013-02-14 13:00:00,24.0,5.0,-100.00,ENE,67,7.0,16.0,44,0.00,,,0.00,,2013-02-14 22:00:00,
2013-02-14 13:32:00,24.0,5.0,-100.00,ENE,67,7.0,16.0,44,0.00,,,0.00,,2013-02-14 22:32:00,
2013-02-14 13:42:00,24.0,5.0,-100.00,ENE,67,7.0,16.0,44,0.00,,,0.00,,2013-02-14 22:42:00,
2013-02-14 13:52:00,24.0,5.0,-100.00,ENE,67,7.0,16.0,44,0.00,,,0.00,,2013-02-14 22:52:00,
2013-02-14 14:00:00,24.0,6.0,-100.00,ENE,62,5.0,13.0,46,0.00,,,0.00,,2013-02-14 23:00:00,
2013-02-14 14:32:00,24.0,6.0,-100.00,ENE,62,5.0,13.0,46,0.00,,,0.00,,2013-02-14 23:32:00,
2013-02-14 14:42:00,24.0,6.0,-100.00,ENE,62,5.0,13.0,46,0.00,,,0.00,,2013-02-14 23:42:00,
2013-02-14 14:52:00,24.0,6.0,-100.00,ENE,62,5.0,13.0,46,0.00,,,0.00,,2013-02-14 23:52:00,
2013-02-14 15:00:00,24.0,6.0,-100.00,ENE,68,6.0,12.0,46,0.00,,,0.00,,2013-02-15 00:00:00,
2013-02-14 15:32:00,24.0,6.0,-100.00,ENE,68,6.0,12.0,46,0.00,,,0.00,,2013-02-15 00:32:00,
2013-02-14 15:42:00,24.0,6.0,-100.00,ENE,68,6.0,12.0,46,0.00,,,0.00,,2013-02-15 00:42:00,
2013-02-14 15:52:00,24.0,6.0,-100.00,ENE,68,6.0,12.0,46,0.00,,,0.00,,2013-02-15 00:52:00,
2013-02-14 16:00:00,23.0,7.0,-100.00,ENE,78,7.0,15.0,49,0.00,,,0.00,,2013-02-15 01:00:00,
2013-02-14 16:32:00,23.0,7.0,-100.00,ENE,78,7.0,15.0,49,0.00,,,0.00,,2013-02-15 01:32:00,
2013-02-14 16:42:00,23.0,7.0,-100.00,ENE,78,7.0,15.0,49,0.00,,,0.00,,2013-02-15 01:42:00,
2013-02-14 16:52:00,23.0,7.0,-100.00,ENE,78,7.0,15.0,49,0.00,,,0.00,,2013-02-15 01:52:00,
2013-02-14 17:00:00,22.0,6.0,-100.00,East,79,5.0,13.0,50,0.00,,,0.00,,2013-02-15 02:00:00,
2013-02-14 17:32:00,22.0,6.0,-100.00,East,79,5.0,13.0,50,0.00,,,0.00,,2013-02-15 02:32:00,
2013-02-14 17:42:00,22.0,6.0,-100.00,East,79,5.0,13.0,50,0.00,,,0.00,,2013-02-15 02:42:00,
2013-02-14 17:52:00,22.0,6.0,-100.00,East,79,5.0,13.0,50,0.00,,,0.00,,2013-02-15 02:52:00,
2013-02-14 18:00:00,22.0,6.0,-100.00,ENE,59,4.0,12.0,49,0.00,,,0.00,,2013-02-15 03:00:00,
2013-02-14 18:32:00,22.0,6.0,-100.00,ENE,59,4.0,12.0,49,0.00,,,0.00,,2013-02-15 03:32:00,
2013-02-14 18:42:00,22.0,6.0,-100.00,ENE,59,4.0,12.0,49,0.00,,,0.00,,2013-02-15 03:42:00,
2013-02-14 18:52:00,22.0,6.0,-100.00,ENE,59,4.0,12.0,49,0.00,,,0.00,,2013-02-15 03:52:00,
2013-02-14 19:00:00,21.0,5.0,-100.00,NE,44,5.0,10.0,50,0.00,,,0.00,,2013-02-15 04:00:00,
2013-02-14 19:32:00,21.0,5.0,-100.00,NE,44,5.0,10.0,50,0.00,,,0.00,,2013-02-15 04:32:00,
2013-02-14 19:42:00,21.0,5.0,-100.00,NE,44,5.0,10.0,50,0.00,,,0.00,,2013-02-15 04:42:00,
2013-02-14 19:52:00,21.0,5.0,-100.00,NE,44,5.0,10.0,50,0.00,,,0.00,,2013-02-15 04:52:00,
2013-02-14 20:00:00,22.0,6.0,-100.00,ENE,62,5.0,11.0,50,0.00,,,0.00,,2013-02-15 05:00:00,
2013-02-14 20:32:00,22.0,6.0,-100.00,ENE,62,5.0,11.0,50,0.00,,,0.00,,2013-02-15 05:32:00,
2013-02-14 20:42:00,22.0,6.0,-100.00,ENE,62,5.0,11.0,50,0.00,,,0.00,,2013-02-15 05:42:00,
2013-02-14 20:52:00,22.0,6.0,-100.00,ENE,62,5.0,11.0,50,0.00,,,0.00,,2013-02-15 05:52:00,
2013-02-14 21:00:00,22.0,6.0,-100.00,ENE,66,6.0,10.0,49,0.00,,,0.00,,2013-02-15 06:00:00,
2013-02-14 21:32:00,22.0,6.0,-100.00,ENE,66,6.0,10.0,49,0.00,,,0.00,,2013-02-15 06:32:00,
2013-02-14 21:42:00,22.0,6.0,-100.00,ENE,66,6.0,10.0,49,0.00,,,0.00,,2013-02-15 06:42:00,
2013-02-14 21:52:00,22.0,6.0,-100.00,ENE,66,6.0,10.0,49,0.00,,,0.00,,2013-02-15 06:52:00,
2013-02-14 22:00:00,22.0,7.0,-100.00,ENE,65,5.0,10.0,51,0.00,,,0.00,,2013-02-15 07:00:00,
2013-02-14 22:32:00,22.0,7.0,-100.00,ENE,65,5.0,10.0,51,0.00,,,0.00,,2013-02-15 07:32:00,
2013-02-14 22:42:00,22.0,7.0,-100.00,ENE,65,5.0,10.0,51,0.00,,,0.00,,2013-02-15 07:42:00,
2013-02-14 22:52:00,22.0,7.0,-100.00,ENE,65,5.0,10.0,51,0.00,,,0.00,,2013-02-15 07:52:00,
2013-02-14 23:00:00,22.0,9.0,-100.00,ENE,62,2.0,8.0,57,0.00,,,0.00,,2013-02-15 08:00:00,
2013-02-14 23:32:00,22.0,9.0,-100.00,ENE,62,2.0,8.0,57,0.00,,,0.00,,2013-02-15 08:32:00,
2013-02-14 23:42:00,22.0,9.0,-100.00,ENE,62,2.0,8.0,57,0.00,,,0.00,,2013-02-15 08:42:00,
2013-02-14 23:53:00,22.0,9.0,-100.00,ENE,62,2.0,8.0,57,0.00,,,0.00,,2013-02-15 08:53:00,